GW1838 Weather Reports


Display with metric or nautical units.
time (UTC)temp
F
wind
direction
speed
MPH
gust
MPH
rain 1hr
in
rain 24hr
in
rain mn
in
humidity
%
barometer
mb
20260507190807 55 159 6.0 9.0 0.00 0.14 0.14 78 1008.1
20260507190307 56 156 6.0 9.0 0.00 0.14 0.14 76 1008.0
20260507185307 59 127 1.0 5.0 0.00 0.14 0.14 76 1007.8
20260507184807 58 156 2.0 5.0 0.00 0.14 0.14 78 1007.9
20260507183306 57 149 3.0 6.0 0.00 0.14 0.14 77 1008.7
20260507182807 56 142 6.0 8.0 0.00 0.14 0.14 75 1008.6
20260507182307 59 148 5.0 6.0 0.00 0.14 0.14 71 1008.6
20260507181807 60 148 2.0 3.0 0.00 0.14 0.14 70 1008.5
20260507180807 61 117 1.0 3.0 0.00 0.14 0.14 67 1008.7
20260507175807 61 108 1.0 5.0 0.00 0.14 0.14 67 1008.6
20260507174806 61 160 2.0 3.0 0.00 0.14 0.14 67 1008.5
20260507174307 62 127 2.0 3.0 0.00 0.14 0.14 65 1008.4
20260507173807 62 102 2.0 3.0 0.00 0.14 0.14 65 1008.5
20260507170309 60 141 1.0 2.0 0.00 0.14 0.14 72 1009.2
20260507165807 59 133 2.0 3.0 0.00 0.14 0.14 72 1009.4
20260507164807 59 113 2.0 3.0 0.00 0.14 0.14 72 1009.5
20260507161806 57 20 3.0 7.0 0.00 0.14 0.14 65 1009.8
20260507160806 57 1 3.0 7.0 0.00 0.14 0.14 67 1010.0
20260507160307 57 334 3.0 6.0 0.00 0.14 0.14 68 1010.0
20260507155806 56 336 3.0 6.0 0.00 0.14 0.14 69 1010.0
20260507154307 56 358 4.0 7.0 0.00 0.14 0.14 71 1010.2
20260507153807 55 346 7.0 12.0 0.00 0.14 0.14 71 1010.1
20260507152307 55 354 6.0 10.0 0.00 0.14 0.14 74 1010.2
20260507151807 55 356 5.0 9.0 0.00 0.14 0.14 76 1010.5
20260507151306 55 334 5.0 8.0 0.00 0.14 0.14 76 1010.6
20260507150807 55 330 5.0 8.0 0.00 0.14 0.14 77 1010.5
20260507150306 55 307 3.0 7.0 0.00 0.14 0.14 77 1010.7
20260507145307 55 329 3.0 9.0 0.00 0.14 0.14 78 1010.6
20260507142807 54 3 7.0 13.0 0.00 0.14 0.14 81 1010.7
20260507142307 54 329 5.0 10.0 0.00 0.14 0.14 81 1010.6
20260507140806 53 338 6.0 12.0 0.00 0.14 0.14 82 1010.5
20260507140306 53 0 7.0 12.0 0.00 0.14 0.14 82 1010.6
20260507134806 53 344 4.0 10.0 0.00 0.14 0.14 83 1010.5
20260507134307 53 339 5.0 12.0 0.00 0.14 0.14 84 1010.6
20260507133307 53 336 5.0 10.0 0.00 0.14 0.14 84 1010.6
20260507132807 53 351 6.0 12.0 0.00 0.14 0.14 84 1010.6
20260507132307 53 322 5.0 12.0 0.00 0.14 0.14 84 1010.6
20260507131306 53 355 8.0 14.0 0.00 0.14 0.14 84 1010.4
20260507125806 53 350 6.0 13.0 0.00 0.14 0.14 85 1010.5
20260507124306 52 339 6.0 12.0 0.00 0.14 0.14 85 1010.6
20260507123806 52 339 6.0 12.0 0.00 0.14 0.14 85 1010.3
20260507122307 52 340 7.0 12.0 0.00 0.14 0.14 85 1010.4
20260507121306 52 0 4.0 8.0 0.00 0.14 0.14 86 1010.4
20260507115806 52 323 4.0 9.0 0.00 0.14 0.14 85 1010.7
20260507114308 52 2 6.0 10.0 0.00 0.14 0.14 85 1010.3
20260507113806 52 3 3.0 7.0 0.00 0.14 0.14 86 1010.2
20260507112308 52 355 5.0 9.0 0.00 0.14 0.14 86 1010.0
20260507110806 52 333 7.0 13.0 0.00 0.14 0.14 87 1010.0
20260507110307 52 331 6.0 15.0 0.00 0.14 0.14 87 1009.9
20260507105807 52 355 9.0 15.0 0.00 0.14 0.14 87 1009.9
20260507105307 52 351 6.0 14.0 0.00 0.14 0.14 88 1009.9
20260507104807 52 330 5.0 10.0 0.00 0.14 0.14 88 1009.9
20260507104308 52 4 6.0 12.0 0.00 0.14 0.14 87 1009.9
20260507102806 52 315 7.0 12.0 0.00 0.14 0.14 88 1009.7
20260507102307 52 343 6.0 12.0 0.00 0.14 0.14 88 1009.5
20260507101806 52 337 6.0 12.0 0.00 0.14 0.14 88 1009.3
20260507100307 52 341 5.0 12.0 0.00 0.14 0.14 89 1009.3
20260507095306 52 350 6.0 13.0 0.00 0.14 0.14 89 1009.0
20260507094306 52 337 5.0 12.0 0.00 0.14 0.14 89 1008.9
20260507093806 52 340 6.0 12.0 0.00 0.14 0.14 89 1009.0
20260507093306 53 350 6.0 12.0 0.00 0.14 0.14 89 1008.8
20260507092807 53 336 6.0 12.0 0.00 0.14 0.14 89 1008.8
20260507091806 53 350 9.0 15.0 0.00 0.14 0.14 89 1008.7
20260507090307 53 343 7.0 16.0 0.00 0.14 0.14 89 1008.8
20260507084807 53 343 9.0 16.0 0.00 0.14 0.14 90 1008.3
20260507084306 53 341 14.0 21.0 0.00 0.14 0.14 90 1008.2
20260507083806 53 355 11.0 17.0 0.00 0.14 0.14 90 1008.5
20260507083306 53 347 11.0 16.0 0.00 0.14 0.14 90 1008.7
20260507081306 53 357 11.0 18.0 0.07 0.14 0.14 90 1008.3
20260507080806 54 337 12.0 18.0 0.07 0.14 0.14 90 1008.4
20260507080307 54 348 9.0 16.0 0.08 0.14 0.14 90 1008.5
20260507073807 55 330 8.0 15.0 0.14 0.14 0.14 90 1008.3
20260507072806 55 346 7.0 12.0 0.14 0.14 0.14 90 1008.1
20260507072307 55 334 6.0 15.0 0.13 0.13 0.13 89 1008.8
20260507071807 56 350 9.0 13.0 0.12 0.12 0.12 89 1008.2
20260507071306 56 333 8.0 14.0 0.07 0.07 0.07 88 1008.2
20260507070306 56 331 10.0 16.0 0.06 0.06 0.06 88 1007.9
20260507064306 57 352 12.0 18.0 0.02 0.02 0.02 84 1007.7
20260507063807 58 344 13.0 20.0 0.00 0.00 0.00 83 1007.4
20260507063307 59 345 12.0 18.0 0.00 0.00 0.00 83 1007.6
20260507062806 60 359 11.0 18.0 0.00 0.00 0.00 83 1007.5
20260507061807 60 349 10.0 15.0 0.00 0.00 0.00 87 1007.3
20260507055807 60 275 3.0 12.0 0.00 0.00 0.00 93 1007.3
20260507055306 60 245 3.0 3.0 0.00 0.00 0.00 93 1007.1
20260507054306 59 240 2.0 7.0 0.00 0.00 0.00 93 1006.8
20260507053806 59 220 4.0 7.0 0.00 0.00 0.00 93 1007.2
20260507053306 59 236 5.0 6.0 0.00 0.00 0.00 93 1007.1
20260507052307 58 204 2.0 3.0 0.00 0.00 0.00 93 1007.1
20260507050806 59 219 2.0 3.0 0.00 0.00 0.00 93 1007.1
20260507045806 58 212 2.0 3.0 0.00 0.00 0.00 93 1007.3
20260507045307 57 207 2.0 3.0 0.00 0.00 0.00 93 1007.3
20260507044807 57 207 2.0 3.0 0.00 0.00 0.00 93 1007.3
20260507043807 57 194 5.0 10.0 0.00 0.00 0.00 92 1007.4
20260507041806 60 193 2.0 5.0 0.00 0.00 0.00 93 1007.6
20260507040307 60 203 4.0 8.0 0.00 0.00 0.00 93 1007.5
20260507035806 60 227 4.0 8.0 0.00 0.00 0.00 93 1007.4
20260507035306 59 235 4.0 9.0 0.00 0.00 0.00 93 1007.3
20260507034807 59 224 3.0 5.0 0.00 0.00 0.00 93 1007.3
20260507034306 58 228 2.0 5.0 0.00 0.00 0.00 93 1007.1
20260507033806 57 224 4.0 6.0 0.00 0.00 0.00 94 1007.1
20260507033306 56 238 3.0 6.0 0.00 0.00 0.00 93 1007.3
20260507032806 56 202 3.0 6.0 0.00 0.00 0.00 93 1007.2
20260507032307 55 200 4.0 6.0 0.00 0.00 0.00 93 1007.3
20260507025806 55 201 5.0 9.0 0.00 0.00 0.00 92 1007.7
20260507024806 55 196 4.0 9.0 0.00 0.00 0.00 92 1007.8
20260507023806 55 206 4.0 7.0 0.00 0.00 0.00 92 1008.2
20260507022806 55 190 6.0 12.0 0.00 0.00 0.00 91 1007.8
20260507021306 57 192 6.0 9.0 0.00 0.00 0.00 90 1008.0
20260507020806 58 186 3.0 6.0 0.00 0.00 0.00 90 1008.1
20260507020306 58 192 2.0 3.0 0.00 0.00 0.00 91 1008.2
20260507014806 57 188 3.0 3.0 0.00 0.00 0.00 91 1008.3
20260507013306 57 197 5.0 12.0 0.00 0.00 0.00 91 1008.5
20260507010306 56 201 4.0 9.0 0.00 0.00 0.00 91 1008.1
20260507005806 57 204 6.0 12.0 0.00 0.00 0.00 91 1008.0
20260507005308 57 197 5.0 12.0 0.00 0.00 0.00 90 1007.8
20260507004806 57 190 5.0 10.0 0.00 0.00 0.00 90 1007.7
20260507003805 58 188 3.0 7.0 0.00 0.00 0.00 91 1007.7
20260507003306 58 199 6.0 12.0 0.00 0.00 0.00 90 1007.7
20260507002806 58 192 3.0 6.0 0.00 0.00 0.00 91 1007.5
20260507002306 58 200 5.0 10.0 0.00 0.00 0.00 91 1007.5
20260507001806 58 205 6.0 10.0 0.00 0.00 0.00 91 1007.6
20260507001305 57 197 7.0 14.0 0.00 0.00 0.00 91 1007.7
20260507000806 57 194 7.0 12.0 0.00 0.00 0.00 91 1007.7
20260507000306 57 194 9.0 16.0 0.00 0.00 0.00 91 1007.6
20260506235806 57 199 9.0 20.0 0.00 0.00 0.00 91 1007.6
20260506234306 58 199 9.0 17.0 0.00 0.00 0.00 90 1007.7
20260506233806 58 197 9.0 12.0 0.00 0.00 0.00 90 1007.6
20260506233306 58 185 5.0 13.0 0.00 0.00 0.00 90 1007.6
20260506232307 58 201 6.0 12.0 0.00 0.00 0.00 90 1007.8
20260506230807 58 203 10.0 17.0 0.00 0.00 0.00 88 1007.2
20260506225806 59 214 7.0 13.0 0.00 0.00 0.00 89 1007.3
20260506223806 59 205 10.0 15.0 0.00 0.00 0.00 88 1007.3
20260506223306 58 204 8.0 16.0 0.00 0.00 0.00 89 1007.4
20260506221806 58 211 9.0 17.0 0.00 0.00 0.00 89 1007.4
20260506220805 58 205 9.0 18.0 0.00 0.00 0.00 90 1007.4
20260506220306 58 189 12.0 20.0 0.00 0.00 0.00 90 1007.3
20260506215806 57 198 12.0 20.0 0.00 0.00 0.00 90 1007.2
20260506214806 57 199 10.0 21.0 0.00 0.00 0.00 89 1007.1
20260506214306 58 194 9.0 16.0 0.00 0.00 0.00 89 1007.2
20260506213806 58 187 10.0 18.0 0.00 0.00 0.00 88 1007.1
20260506213305 58 198 13.0 20.0 0.00 0.00 0.00 88 1007.0
20260506212807 59 191 12.0 18.0 0.00 0.00 0.00 87 1007.1
20260506212307 59 202 12.0 22.0 0.00 0.00 0.00 87 1007.0
20260506211305 60 209 13.0 22.0 0.00 0.00 0.00 87 1007.1
20260506210305 59 195 13.0 22.0 0.00 0.00 0.00 87 1007.0
20260506205806 59 190 12.0 22.0 0.00 0.00 0.00 87 1006.9
20260506204806 59 202 13.0 23.0 0.00 0.00 0.00 87 1006.9
20260506204306 60 204 12.0 21.0 0.00 0.00 0.00 87 1006.8
20260506203806 60 195 12.0 18.0 0.00 0.00 0.00 86 1006.8
20260506203306 60 197 15.0 23.0 0.00 0.00 0.00 86 1006.8
20260506202306 61 213 11.0 24.0 0.00 0.00 0.00 86 1006.9
20260506201306 60 186 9.0 17.0 0.00 0.00 0.00 87 1006.9
20260506200806 60 181 9.0 18.0 0.00 0.00 0.00 85 1007.0
20260506195306 62 216 10.0 17.0 0.00 0.00 0.00 86 1007.4
20260506194807 62 215 10.0 17.0 0.00 0.00 0.00 86 1007.5
20260506194306 61 210 9.0 15.0 0.00 0.00 0.00 87 1007.5
20260506193807 60 223 10.0 16.0 0.00 0.00 0.00 88 1007.5
20260506192306 59 206 11.0 22.0 0.00 0.00 0.00 89 1007.5